| time (UTC) | temp F | wind direction | speed knots | gust knots | rain 1hr in | rain 24hr in | rain mn in | humidity % | barometer mb |
| 20260508151537 | 56 | 334 | 7.0 | 13.9 | 0.00 | 0.00 | 0.00 | 62 | 1020.9 |
| 20260508150031 | 55 | 349 | 5.2 | 12.2 | 0.00 | 0.00 | 0.00 | 62 | 1020.7 |
| 20260508144644 | 51 | 9 | 0.9 | 7.0 | 0.00 | 0.00 | 0.00 | 68 | 1020.6 |
| 20260508140105 | 48 | 133 | 2.6 | 5.2 | 0.00 | 0.00 | 0.00 | 69 | 1020.0 |
| 20260508134532 | 48 | 146 | 2.6 | 4.3 | 0.00 | 0.00 | 0.00 | 70 | 1020.0 |
| 20260508133035 | 46 | 168 | 1.7 | 5.2 | 0.00 | 0.00 | 0.00 | 73 | 1019.9 |
| 20260508131607 | 45 | 183 | 0.9 | 4.3 | 0.00 | 0.00 | 0.00 | 72 | 1019.7 |
| 20260508130036 | 45 | 138 | 1.7 | 4.3 | 0.00 | 0.00 | 0.00 | 69 | 1019.6 |
| 20260508124537 | 45 | 190 | 0.9 | 4.3 | 0.00 | 0.00 | 0.00 | 69 | 1019.7 |
| 20260508123137 | 44 | 147 | 2.6 | 7.0 | 0.00 | 0.00 | 0.00 | 71 | 1019.6 |
| 20260508121530 | 44 | 138 | 1.7 | 6.1 | 0.00 | 0.00 | 0.00 | 71 | 1019.4 |
| 20260508120037 | 43 | 163 | 2.6 | 6.1 | 0.00 | 0.00 | 0.00 | 69 | 1019.4 |
| 20260508114606 | 43 | 140 | 1.7 | 7.0 | 0.00 | 0.00 | 0.00 | 66 | 1019.4 |
| 20260508113107 | 44 | 167 | 2.6 | 6.1 | 0.00 | 0.00 | 0.00 | 63 | 1019.3 |
| 20260508111533 | 44 | 145 | 2.6 | 5.2 | 0.00 | 0.00 | 0.00 | 61 | 1019.3 |
| 20260508110031 | 44 | 151 | 3.5 | 7.0 | 0.00 | 0.00 | 0.00 | 60 | 1019.1 |
| 20260508104609 | 44 | 151 | 3.5 | 6.1 | 0.00 | 0.00 | 0.00 | 60 | 1019.2 |
| 20260508103030 | 43 | 145 | 4.3 | 6.1 | 0.00 | 0.00 | 0.00 | 61 | 1019.2 |
| 20260508101606 | 43 | 150 | 4.3 | 6.1 | 0.00 | 0.00 | 0.00 | 62 | 1019.2 |
| 20260508100033 | 43 | 140 | 3.5 | 7.0 | 0.00 | 0.00 | 0.00 | 62 | 1019.3 |
| 20260508094533 | 43 | 167 | 3.5 | 7.0 | 0.00 | 0.00 | 0.00 | 63 | 1019.2 |
| 20260508093029 | 43 | 156 | 3.5 | 6.1 | 0.00 | 0.00 | 0.00 | 62 | 1019.1 |
| 20260508091641 | 44 | 147 | 3.5 | 5.2 | 0.00 | 0.00 | 0.00 | 62 | 1019.2 |
| 20260508090031 | 44 | 155 | 3.5 | 6.1 | 0.00 | 0.00 | 0.00 | 61 | 1019.2 |
| 20260508084532 | 45 | 149 | 3.5 | 7.0 | 0.00 | 0.00 | 0.00 | 61 | 1019.2 |
| 20260508083031 | 45 | 148 | 4.3 | 6.1 | 0.00 | 0.00 | 0.00 | 60 | 1019.2 |
| 20260508081607 | 45 | 149 | 3.5 | 6.1 | 0.00 | 0.00 | 0.00 | 60 | 1019.3 |
| 20260508080033 | 45 | 144 | 2.6 | 5.2 | 0.00 | 0.00 | 0.00 | 60 | 1019.3 |
| 20260508074644 | 45 | 136 | 2.6 | 5.2 | 0.00 | 0.00 | 0.00 | 60 | 1019.3 |
| 20260508073034 | 46 | 144 | 3.5 | 5.2 | 0.00 | 0.00 | 0.00 | 60 | 1019.3 |
| 20260508071536 | 46 | 152 | 2.6 | 6.1 | 0.00 | 0.00 | 0.00 | 60 | 1019.4 |
| 20260508064606 | 46 | 152 | 3.5 | 6.1 | 0.00 | 0.00 | 0.00 | 60 | 1019.4 |
| 20260508063036 | 46 | 157 | 3.5 | 6.1 | 0.00 | 0.00 | 0.00 | 60 | 1019.4 |
| 20260508061534 | 45 | 149 | 3.5 | 5.2 | 0.00 | 0.00 | 0.00 | 59 | 1019.6 |
| 20260508051534 | 53 | 52 | 0.9 | 3.5 | 0.00 | 0.00 | 0.00 | 42 | 1019.7 |
| 20260508050035 | 54 | 360 | 1.7 | 6.1 | 0.00 | 0.00 | 0.00 | 39 | 1019.7 |
| 20260508044536 | 56 | 317 | 1.7 | 7.0 | 0.00 | 0.00 | 0.00 | 36 | 1019.7 |
| 20260508043035 | 55 | 48 | 3.5 | 7.8 | 0.00 | 0.00 | 0.00 | 37 | 1019.5 |
| 20260508041647 | 55 | 111 | 1.7 | 4.3 | 0.00 | 0.00 | 0.00 | 37 | 1019.4 |
| 20260508040032 | 56 | 74 | 1.7 | 4.3 | 0.00 | 0.00 | 0.00 | 37 | 1019.1 |
| 20260508034534 | 57 | 59 | 3.5 | 7.0 | 0.00 | 0.00 | 0.00 | 37 | 1018.9 |
| 20260508033030 | 58 | 15 | 4.3 | 13.9 | 0.00 | 0.00 | 0.00 | 37 | 1018.7 |
| 20260508031534 | 60 | 348 | 5.2 | 10.4 | 0.00 | 0.00 | 0.00 | 36 | 1018.7 |
| 20260508030037 | 61 | 334 | 5.2 | 15.6 | 0.00 | 0.00 | 0.00 | 35 | 1018.6 |
| 20260508024530 | 62 | 316 | 6.1 | 11.3 | 0.00 | 0.00 | 0.00 | 35 | 1018.5 |
| 20260508023035 | 63 | 328 | 7.8 | 18.2 | 0.00 | 0.00 | 0.00 | 35 | 1018.3 |
| 20260508020033 | 66 | 323 | 6.1 | 13.0 | 0.00 | 0.00 | 0.00 | 33 | 1018.3 |
| 20260508013033 | 70 | 306 | 4.3 | 9.6 | 0.00 | 0.00 | 0.00 | 28 | 1018.6 |
| 20260508011531 | 71 | 333 | 3.5 | 11.3 | 0.00 | 0.00 | 0.00 | 27 | 1018.8 |
| 20260508010150 | 71 | 296 | 4.3 | 11.3 | 0.00 | 0.00 | 0.00 | 27 | 1018.8 |
| 20260508003031 | 72 | 285 | 4.3 | 12.2 | 0.00 | 0.00 | 0.00 | 27 | 1018.7 |
| 20260508001529 | 72 | 292 | 6.1 | 13.9 | 0.00 | 0.00 | 0.00 | 25 | 1018.6 |
| 20260508000148 | 73 | 283 | 6.1 | 13.0 | 0.00 | 0.00 | 0.00 | 23 | 1018.6 |
| 20260507231535 | 73 | 287 | 6.1 | 16.5 | 0.00 | 0.00 | 0.00 | 24 | 1018.8 |
| 20260507230030 | 73 | 299 | 7.0 | 13.9 | 0.00 | 0.00 | 0.00 | 24 | 1018.7 |
| 20260507224535 | 73 | 294 | 6.1 | 13.9 | 0.00 | 0.00 | 0.00 | 24 | 1018.9 |
| 20260507223029 | 72 | 305 | 6.1 | 13.9 | 0.00 | 0.00 | 0.00 | 26 | 1019.0 |
| 20260507221649 | 71 | 299 | 6.1 | 13.0 | 0.00 | 0.00 | 0.00 | 26 | 1019.3 |
| 20260507220033 | 70 | 316 | 6.1 | 13.9 | 0.00 | 0.00 | 0.00 | 29 | 1019.4 |
| 20260507213037 | 69 | 336 | 8.7 | 15.6 | 0.00 | 0.00 | 0.00 | 31 | 1019.6 |
| 20260507204607 | 69 | 334 | 7.8 | 15.6 | 0.00 | 0.00 | 0.00 | 34 | 1019.8 |
| 20260507203036 | 69 | 331 | 6.1 | 13.0 | 0.00 | 0.00 | 0.00 | 33 | 1020.0 |
| 20260507200034 | 68 | 309 | 7.0 | 13.9 | 0.00 | 0.00 | 0.00 | 34 | 1020.2 |
| 20260507194604 | 69 | 311 | 7.0 | 13.0 | 0.00 | 0.00 | 0.00 | 33 | 1020.2 |
| 20260507193033 | 69 | 296 | 7.0 | 13.9 | 0.00 | 0.00 | 0.00 | 34 | 1020.3 |
| 20260507191604 | 68 | 305 | 5.2 | 12.2 | 0.00 | 0.00 | 0.00 | 34 | 1020.4 |
| 20260507184534 | 66 | 353 | 4.3 | 11.3 | 0.00 | 0.00 | 0.00 | 38 | 1020.8 |
| 20260507181537 | 65 | 346 | 4.3 | 8.7 | 0.00 | 0.00 | 0.00 | 40 | 1020.9 |
| 20260507180030 | 64 | 325 | 4.3 | 11.3 | 0.00 | 0.00 | 0.00 | 42 | 1021.1 |
| 20260507174536 | 63 | 329 | 4.3 | 10.4 | 0.00 | 0.00 | 0.00 | 45 | 1021.2 |
| 20260507171534 | 61 | 352 | 5.2 | 9.6 | 0.00 | 0.00 | 0.00 | 50 | 1021.4 |
| 20260507170032 | 61 | 17 | 4.3 | 9.6 | 0.00 | 0.00 | 0.00 | 51 | 1021.3 |
| 20260507164606 | 60 | 32 | 3.5 | 8.7 | 0.00 | 0.00 | 0.00 | 54 | 1021.4 |
| 20260507163143 | 59 | 11 | 5.2 | 9.6 | 0.00 | 0.00 | 0.00 | 55 | 1021.3 |
| 20260507161533 | 58 | 352 | 4.3 | 10.4 | 0.00 | 0.00 | 0.00 | 56 | 1021.3 |
| 20260507153034 | 57 | 336 | 3.5 | 8.7 | 0.00 | 0.00 | 0.00 | 60 | 1021.4 |